San Jose, CA

8:46 AM PDT on July 20, 2017 (GMT -0700)
San Jose International

Weather History for KSJC - March, 2012

Change the Weather History Date:

Thursday, March 29, 2012

  Actual Average Record
Temperature  
Mean Temperature 58 °F 57 °F  
Max Temperature 69 °F 67 °F 81 °F (1968)
Min Temperature 47 °F 47 °F 30 °F (1895)
Degree Days  
Heating Degree Days 7 8  
Month to date heating degree days 311 260  
Since 1 July heating degree days 1928 1925  
Cooling Degree Days 0 0  
Month to date cooling degree days 0 0  
Year to date cooling degree days 0 0  
Growing Degree Days 6 (Base 50)    
Moisture  
Dew Point 47 °F    
Average Humidity 68    
Maximum Humidity 93    
Minimum Humidity 42    
Precipitation  
Precipitation 0.00 in 0.06 in 0.60 in (1914)
Month to date precipitation 1.63 2.43  
Year to date precipitation 3.16 8.61  
Since 1 July precipitation 4.71  
Sea Level Pressure  
Sea Level Pressure 30.11 in    
Wind  
Wind Speed 6 mph (South)    
Max Wind Speed 17 mph    
Max Gust Speed 21 mph    
Visibility 10 miles    
Events      
T = Trace of Precipitation, MM = Missing Value Source: NWS Daily Summary

Daily Weather History Graph

Daily Weather History Graph

Search for Another Location

Airport or City:

Trip Planner

Search our weather history database for the weather conditions in past years. The results will help you decide how hot, cold, wet, or windy it might be!

Date:

Astronomy

Mar. 29, 2012 Rise Set
Actual Time 6:56 AM PDT 7:28 PM PDT
Civil Twilight 6:30 AM PDT 7:54 PM PDT
Nautical Twilight 5:59 AM PDT 8:25 PM PDT
Astronomical Twilight 5:28 AM PDT 8:57 PM PDT
Moon 11:16 AM PDT (3/29) 1:17 AM PDT (3/29)
Length of Visible Light 13h 23m
Length of Day
12h 31m
Waxing Crescent, 40% of the Moon is Illuminated
Mar 29
Waxing Crescent
Mar 30
First Quarter
Apr 6
Full
Apr 13
Last Quarter
Apr 21
New

Hourly Weather History & Observations

Time (PDT) Temp. Dew Point Humidity Pressure Visibility Wind Dir Wind Speed Gust Speed Precip Events Conditions
12:53 AM 52.0 °F 48.9 °F 89% 30.14 in 10.0 mi East 3.5 mph - N/A   Partly Cloudy
1:53 AM 50.0 °F 46.0 °F 86% 30.12 in 10.0 mi SE 4.6 mph - N/A   Clear
2:53 AM 51.1 °F 46.9 °F 86% 30.13 in 10.0 mi SSE 4.6 mph - N/A   Clear
3:53 AM 50.0 °F 48.0 °F 93% 30.11 in 10.0 mi SSE 3.5 mph - N/A   Clear
4:53 AM 50.0 °F 46.9 °F 89% 30.11 in 10.0 mi SSE 3.5 mph - N/A   Clear
5:48 AM 48.2 °F 46.4 °F 93% 30.12 in 10.0 mi SE 4.6 mph - N/A   Partly Cloudy
5:53 AM 48.9 °F 46.9 °F 93% 30.12 in 10.0 mi SE 3.5 mph - N/A   Partly Cloudy
6:53 AM 46.9 °F 45.0 °F 93% 30.15 in 9.0 mi West 3.5 mph - N/A   Mostly Cloudy
7:53 AM 50.0 °F 48.0 °F 93% 30.12 in 8.0 mi SSE 5.8 mph - N/A   Mostly Cloudy
8:12 AM 48.2 °F 48.2 °F 100% 30.13 in 7.0 mi SE 6.9 mph - N/A   Mostly Cloudy
8:28 AM 50.0 °F 48.2 °F 94% 30.14 in 6.0 mi SE 3.5 mph - N/A   Mostly Cloudy
8:53 AM 51.1 °F 48.0 °F 89% 30.14 in 10.0 mi SE 4.6 mph - N/A   Mostly Cloudy
9:53 AM 54.0 °F 48.0 °F 80% 30.14 in 10.0 mi Calm Calm - N/A   Mostly Cloudy
10:53 AM 57.9 °F 46.9 °F 67% 30.14 in 10.0 mi SE 4.6 mph - N/A   Overcast
11:53 AM 62.1 °F 44.1 °F 52% 30.10 in 10.0 mi Variable 4.6 mph - N/A   Overcast
12:53 PM 66.0 °F 42.1 °F 42% 30.08 in 10.0 mi Variable 3.5 mph - N/A   Overcast
1:53 PM 66.9 °F 42.1 °F 40% 30.06 in 10.0 mi Variable 3.5 mph - N/A   Overcast
2:53 PM 66.9 °F 45.0 °F 45% 30.06 in 10.0 mi NW 11.5 mph - N/A   Overcast
3:53 PM 66.0 °F 46.9 °F 50% 30.08 in 10.0 mi NW 16.1 mph - N/A   Overcast
4:53 PM 63.0 °F 48.0 °F 58% 30.06 in 10.0 mi NW 10.4 mph - N/A   Overcast
5:53 PM 61.0 °F 46.9 °F 60% 30.08 in 10.0 mi NW 12.7 mph - N/A   Overcast
6:53 PM 60.1 °F 46.9 °F 62% 30.09 in 10.0 mi NW 8.1 mph - N/A   Overcast
7:53 PM 60.1 °F 46.9 °F 62% 30.09 in 10.0 mi NW 6.9 mph - N/A   Overcast
8:53 PM 57.0 °F 48.0 °F 72% 30.10 in 10.0 mi WNW 3.5 mph - N/A   Overcast
9:53 PM 57.0 °F 48.9 °F 74% 30.11 in 10.0 mi WNW 9.2 mph - N/A   Overcast
10:53 PM 57.0 °F 50.0 °F 77% 30.12 in 10.0 mi NW 5.8 mph - N/A   Overcast
11:53 PM 57.0 °F 48.9 °F 74% 30.11 in 10.0 mi Calm Calm - N/A   Overcast